Location: Umburanas
(4.5000°S, 37.9667°W)
Time: 01:33:58
(UTC+00:00)

ARIANE 5 R/B - Pass Details

Date: 19 November 2019
Orbit: 274 x 34797 km, 6.5° (Epoch: 05 December)

Event Time Altitude Azimuth Distance (km) Brightness Sun altitude
Rises 12:12:25 0° 272° (W) 11,172 8.1 56.1°
Reaches altitude 10° 12:18:35 10° 272° (W) 11,846 8.4 57.5°
Maximum altitude 21:40:48 61° 342° (NNW) 2,294 4.8 -18.0°
Enters shadow 21:44:58 27° 54° (NE) 2,149 4.2 -18.9°
